Wetterdaten: Sonntag, 08.02.2015
Datum Zeit Temp. A. Feuchte A. Luftdruck Regen Wind Richtung Richtung Sonnenschein ET UV Solar Taupunkt Windchill Windben Empfang
08.02.2015 00:00 -4,9 C 60 % 1022,2 hPa 0,0 l/m 0,7 km/h (0 Bft) S 174 0 min 0,000 mm 0,0 UV-I 0 W/m -11,4 C -4,9 C 4,0 km/h (1 Bft) 0,00 %
08.02.2015 00:15 -4,5 C 58 % 1022,1 hPa 0,0 l/m 4,3 km/h (1 Bft) W-SW 255 0 min 0,000 mm 0,0 UV-I 0 W/m -11,5 C -4,5 C 11,9 km/h (2 Bft) 0,00 %
08.02.2015 00:30 -4,6 C 59 % 1022,3 hPa 0,0 l/m 15,5 km/h (3 Bft) W-SW 253 0 min 0,000 mm 0,0 UV-I 0 W/m -11,4 C -12,9 C 19,8 km/h (3 Bft) 0,00 %
08.02.2015 00:45 -4,5 C 59 % 1021,4 hPa 0,0 l/m 3,2 km/h (1 Bft) NW 317 0 min 0,000 mm 0,0 UV-I 0 W/m -11,3 C -4,5 C 7,9 km/h (2 Bft) 0,00 %
08.02.2015 01:00 -4,5 C 59 % 1021,5 hPa 0,0 l/m 5,4 km/h (1 Bft) W-SW 257 0 min 0,000 mm 0,0 UV-I 0 W/m -11,3 C -4,5 C 11,9 km/h (2 Bft) 0,00 %
08.02.2015 01:15 -4,5 C 59 % 1021,3 hPa 0,0 l/m 2,9 km/h (1 Bft) SW 234 0 min 0,000 mm 0,0 UV-I 0 W/m -11,3 C -4,5 C 4,0 km/h (1 Bft) 0,00 %
08.02.2015 01:30 -4,4 C 59 % 1021,5 hPa 0,0 l/m 1,4 km/h (1 Bft) W-SW 256 0 min 0,000 mm 0,0 UV-I 0 W/m -11,2 C -4,4 C 4,0 km/h (1 Bft) 0,00 %
08.02.2015 01:45 -4,3 C 59 % 1020,7 hPa 0,0 l/m 2,9 km/h (1 Bft) W-NW 298 0 min 0,000 mm 0,0 UV-I 0 W/m -11,1 C -4,3 C 7,9 km/h (2 Bft) 0,00 %
08.02.2015 02:00 -4,0 C 59 % 1020,6 hPa 0,0 l/m 0,0 km/h (0 Bft) S 188 0 min 0,000 mm 0,0 UV-I 0 W/m -10,8 C -4,0 C 0,0 km/h (0 Bft) 0,00 %
08.02.2015 02:15 -4,0 C 59 % 1020,2 hPa 0,0 l/m 2,2 km/h (1 Bft) NW 308 0 min 0,000 mm 0,0 UV-I 0 W/m -10,8 C -4,0 C 4,0 km/h (1 Bft) 0,00 %
08.02.2015 02:30 -3,9 C 58 % 1019,8 hPa 0,0 l/m 11,5 km/h (2 Bft) W-SW 239 0 min 0,000 mm 0,0 UV-I 0 W/m -10,9 C -9,1 C 11,9 km/h (2 Bft) 0,00 %
08.02.2015 02:45 -3,8 C 57 % 1019,3 hPa 0,0 l/m 6,5 km/h (2 Bft) SW 225 0 min 0,000 mm 0,0 UV-I 0 W/m -11,0 C -3,9 C 7,9 km/h (2 Bft) 0,00 %
08.02.2015 03:00 -3,8 C 58 % 1018,7 hPa 0,0 l/m 5,8 km/h (2 Bft) W-SW 254 0 min 0,000 mm 0,0 UV-I 0 W/m -10,8 C -3,8 C 11,9 km/h (2 Bft) 0,00 %
08.02.2015 03:15 -3,6 C 56 % 1018,5 hPa 0,0 l/m 0,7 km/h (0 Bft) W-SW 255 0 min 0,000 mm 0,0 UV-I 0 W/m -11,1 C -3,6 C 4,0 km/h (1 Bft) 0,00 %
08.02.2015 03:30 -3,4 C 55 % 1018,3 hPa 0,0 l/m 2,2 km/h (1 Bft) O 80 0 min 0,000 mm 0,0 UV-I 0 W/m -11,1 C -3,4 C 4,0 km/h (1 Bft) 0,00 %
08.02.2015 03:45 -3,4 C 59 % 1018,5 hPa 0,0 l/m 1,4 km/h (1 Bft) S-SW 203 0 min 0,000 mm 0,0 UV-I 0 W/m -10,2 C -3,4 C 4,0 km/h (1 Bft) 0,00 %
08.02.2015 04:00 -3,5 C 61 % 1018,6 hPa 0,0 l/m 4,7 km/h (1 Bft) W-SW 256 0 min 0,000 mm 0,0 UV-I 0 W/m -9,9 C -3,5 C 11,9 km/h (2 Bft) 0,00 %
08.02.2015 04:15 -3,7 C 66 % 1018,5 hPa 0,0 l/m 7,2 km/h (2 Bft) W-SW 258 0 min 0,000 mm 0,0 UV-I 0 W/m -9,1 C -4,6 C 11,9 km/h (2 Bft) 0,00 %
08.02.2015 04:30 -3,8 C 71 % 1018,6 hPa 0,0 l/m 4,0 km/h (1 Bft) W-SW 256 0 min 0,000 mm 0,0 UV-I 0 W/m -8,3 C -3,8 C 7,9 km/h (2 Bft) 0,00 %
08.02.2015 04:45 -3,9 C 73 % 1018,4 hPa 0,0 l/m 5,8 km/h (2 Bft) W-SW 255 0 min 0,000 mm 0,0 UV-I 0 W/m -8,0 C -3,9 C 7,9 km/h (2 Bft) 0,00 %
08.02.2015 05:00 -3,8 C 75 % 1017,4 hPa 0,0 l/m 0,4 km/h (0 Bft) NO 36 0 min 0,000 mm 0,0 UV-I 0 W/m -7,6 C -3,8 C 4,0 km/h (1 Bft) 0,00 %
08.02.2015 05:15 -3,8 C 76 % 1017,7 hPa 0,0 l/m 5,4 km/h (1 Bft) O-SO 119 0 min 0,000 mm 0,0 UV-I 0 W/m -7,4 C -3,8 C 7,9 km/h (2 Bft) 0,00 %
08.02.2015 05:30 -3,8 C 77 % 1017,3 hPa 0,0 l/m 9,0 km/h (2 Bft) W-SW 256 0 min 0,000 mm 0,0 UV-I 0 W/m -7,2 C -6,7 C 11,9 km/h (2 Bft) 0,00 %
08.02.2015 05:45 -3,6 C 77 % 1017,3 hPa 0,0 l/m 12,2 km/h (2 Bft) SW 236 0 min 0,000 mm 0,0 UV-I 0 W/m -7,0 C -9,3 C 15,8 km/h (3 Bft) 0,00 %
08.02.2015 06:00 -3,5 C 75 % 1017,1 hPa 0,0 l/m 7,9 km/h (2 Bft) SW 222 0 min 0,000 mm 0,0 UV-I 0 W/m -7,3 C -5,2 C 11,9 km/h (2 Bft) 0,00 %
08.02.2015 06:15 -3,2 C 74 % 1016,4 hPa 0,0 l/m 4,0 km/h (1 Bft) N-NW 331 0 min 0,000 mm 0,0 UV-I 0 W/m -7,2 C -3,2 C 11,9 km/h (2 Bft) 0,00 %
08.02.2015 06:30 -3,0 C 74 % 1016,6 hPa 0,0 l/m 5,4 km/h (1 Bft) W-NW 298 0 min 0,000 mm 0,0 UV-I 0 W/m -7,0 C -3,0 C 7,9 km/h (2 Bft) 0,00 %
08.02.2015 06:45 -2,8 C 73 % 1016,4 hPa 0,0 l/m 1,4 km/h (1 Bft) W-SW 256 0 min 0,000 mm 0,0 UV-I 0 W/m -6,9 C -2,8 C 4,0 km/h (1 Bft) 0,00 %
08.02.2015 07:00 -2,7 C 73 % 1016,4 hPa 0,0 l/m 0,7 km/h (0 Bft) NW 307 0 min 0,000 mm 0,0 UV-I 0 W/m -6,9 C -2,7 C 4,0 km/h (1 Bft) 0,00 %
08.02.2015 07:15 -2,6 C 73 % 1016,1 hPa 0,0 l/m 10,4 km/h (2 Bft) W-SW 256 0 min 0,000 mm 0,0 UV-I 0 W/m -6,8 C -6,7 C 11,9 km/h (2 Bft) 0,00 %
08.02.2015 07:30 -2,4 C 76 % 1016,3 hPa 0,0 l/m 4,3 km/h (1 Bft) W-SW 250 0 min 0,000 mm 0,0 UV-I 0 W/m -6,0 C -2,4 C 7,9 km/h (2 Bft) 0,00 %
08.02.2015 07:45 -2,3 C 77 % 1016,2 hPa 0,0 l/m 4,7 km/h (1 Bft) N 351 0 min 0,000 mm 0,0 UV-I 0 W/m -5,8 C -2,3 C 11,9 km/h (2 Bft) 0,00 %
08.02.2015 08:00 -2,4 C 80 % 1016,2 hPa 0,0 l/m 4,3 km/h (1 Bft) SW 216 0 min 0,000 mm 0,0 UV-I 4 W/m -5,4 C -2,4 C 11,9 km/h (2 Bft) 0,00 %
08.02.2015 08:15 -2,4 C 82 % 1015,9 hPa 0,0 l/m 0,7 km/h (0 Bft) SO 133 0 min 0,000 mm 0,0 UV-I 12 W/m -5,0 C -2,4 C 4,0 km/h (1 Bft) 0,00 %
08.02.2015 08:30 -2,2 C 82 % 1016,0 hPa 0,0 l/m 11,9 km/h (2 Bft) W-SW 241 0 min 0,000 mm 0,0 UV-I 40 W/m -4,8 C -7,5 C 15,8 km/h (3 Bft) 0,00 %
08.02.2015 08:45 -1,7 C 77 % 1016,3 hPa 0,0 l/m 5,4 km/h (1 Bft) W-SW 256 0 min 0,000 mm 0,0 UV-I 70 W/m -5,2 C -1,7 C 7,9 km/h (2 Bft) 0,00 %
08.02.2015 09:00 -1,6 C 77 % 1016,4 hPa 0,0 l/m 11,5 km/h (2 Bft) W-SW 256 0 min 0,000 mm 1,0 UV-I 110 W/m -5,1 C -6,5 C 19,8 km/h (3 Bft) 0,00 %
08.02.2015 09:15 -1,3 C 73 % 1016,4 hPa 0,0 l/m 2,9 km/h (1 Bft) NW 307 0 min 0,000 mm 1,0 UV-I 125 W/m -5,5 C -1,3 C 4,0 km/h (1 Bft) 0,00 %
08.02.2015 09:30 -1,1 C 72 % 1017,0 hPa 0,0 l/m 5,8 km/h (2 Bft) SW 223 15 min 0,000 mm 1,0 UV-I 217 W/m -5,5 C -1,1 C 11,9 km/h (2 Bft) 0,00 %
08.02.2015 09:45 -1,1 C 72 % 1017,1 hPa 0,0 l/m 0,0 km/h (0 Bft) O-NO 72 15 min 0,000 mm 1,0 UV-I 215 W/m -5,5 C -1,1 C 0,0 km/h (0 Bft) 0,00 %
08.02.2015 10:00 -1,0 C 71 % 1016,9 hPa 0,0 l/m 4,3 km/h (1 Bft) SW 233 15 min 0,000 mm 2,0 UV-I 297 W/m -5,6 C -1,0 C 7,9 km/h (2 Bft) 0,00 %
08.02.2015 10:15 -0,5 C 69 % 1017,0 hPa 0,0 l/m 0,4 km/h (0 Bft) NW 307 15 min 0,000 mm 2,0 UV-I 299 W/m -5,5 C -0,5 C 4,0 km/h (1 Bft) 0,00 %
08.02.2015 10:30 -0,8 C 71 % 1017,3 hPa 0,0 l/m 4,0 km/h (1 Bft) W-SW 256 15 min 0,000 mm 2,0 UV-I 316 W/m -5,4 C -0,8 C 7,9 km/h (2 Bft) 0,00 %
08.02.2015 10:45 -0,5 C 68 % 1017,1 hPa 0,0 l/m 0,0 km/h (0 Bft) W-SW 255 15 min 0,000 mm 2,0 UV-I 335 W/m -5,7 C -0,5 C 0,0 km/h (0 Bft) 0,00 %
08.02.2015 11:00 0,4 C 63 % 1017,4 hPa 0,0 l/m 0,0 km/h (0 Bft) SW 232 15 min 0,000 mm 3,0 UV-I 377 W/m -5,8 C 0,4 C 0,0 km/h (0 Bft) 0,00 %
08.02.2015 11:15 0,6 C 61 % 1017,5 hPa 0,0 l/m 1,4 km/h (1 Bft) W-NW 282 15 min 0,000 mm 2,0 UV-I 286 W/m -6,0 C 0,6 C 4,0 km/h (1 Bft) 0,00 %
08.02.2015 11:30 0,5 C 60 % 1017,3 hPa 0,0 l/m 4,3 km/h (1 Bft) W-SW 250 15 min 0,000 mm 3,0 UV-I 344 W/m -6,3 C 0,5 C 7,9 km/h (2 Bft) 0,00 %
08.02.2015 11:45 0,8 C 59 % 1017,5 hPa 0,0 l/m 0,4 km/h (0 Bft) SW 228 15 min 0,000 mm 3,0 UV-I 444 W/m -6,3 C 0,8 C 4,0 km/h (1 Bft) 0,00 %
08.02.2015 12:00 0,7 C 59 % 1017,4 hPa 0,0 l/m 0,4 km/h (0 Bft) O-SO 111 15 min 0,000 mm 2,0 UV-I 383 W/m -6,4 C 0,7 C 4,0 km/h (1 Bft) 0,00 %
08.02.2015 12:15 0,8 C 59 % 1017,3 hPa 0,0 l/m 0,4 km/h (0 Bft) W-SW 255 15 min 0,000 mm 2,0 UV-I 308 W/m -6,3 C 0,8 C 4,0 km/h (1 Bft) 0,00 %
08.02.2015 12:30 0,2 C 62 % 1017,5 hPa 0,0 l/m 2,2 km/h (1 Bft) W 281 0 min 0,000 mm 1,0 UV-I 114 W/m -6,2 C 0,2 C 4,0 km/h (1 Bft) 0,00 %
08.02.2015 12:45 -0,8 C 70 % 1017,7 hPa 0,0 l/m 0,0 km/h (0 Bft) S-SW 196 15 min 0,000 mm 2,0 UV-I 397 W/m -5,6 C -0,8 C 0,0 km/h (0 Bft) 0,00 %
08.02.2015 13:00 0,7 C 58 % 1017,1 hPa 0,0 l/m 4,0 km/h (1 Bft) W-SW 255 15 min 0,000 mm 2,0 UV-I 386 W/m -6,6 C 0,7 C 7,9 km/h (2 Bft) 0,00 %
08.02.2015 13:15 0,0 C 61 % 1017,4 hPa 0,0 l/m 9,4 km/h (2 Bft) W-SW 251 15 min 0,000 mm 2,0 UV-I 275 W/m -6,6 C -2,9 C 11,9 km/h (2 Bft) 0,00 %
08.02.2015 13:30 0,3 C 60 % 1017,9 hPa 0,0 l/m 4,0 km/h (1 Bft) W-SW 256 15 min 0,000 mm 2,0 UV-I 295 W/m -6,5 C 0,3 C 7,9 km/h (2 Bft) 0,00 %
08.02.2015 13:45 -1,7 C 70 % 1018,8 hPa 0,0 l/m 16,6 km/h (3 Bft) NW 326 0 min 0,000 mm 1,0 UV-I 168 W/m -6,4 C -10,0 C 24,1 km/h (4 Bft) 0,00 %
08.02.2015 14:00 -2,5 C 76 % 1019,2 hPa 0,0 l/m 15,5 km/h (3 Bft) W 279 15 min 0,000 mm 1,0 UV-I 241 W/m -6,1 C -10,3 C 24,1 km/h (4 Bft) 0,00 %
08.02.2015 14:15 -3,4 C 73 % 1019,4 hPa 0,0 l/m 8,3 km/h (2 Bft) W-SW 256 15 min 0,000 mm 1,0 UV-I 244 W/m -7,5 C -5,5 C 11,9 km/h (2 Bft) 0,00 %
08.02.2015 14:30 -3,5 C 65 % 1019,8 hPa 0,0 l/m 0,4 km/h (0 Bft) O 89 15 min 0,000 mm 1,0 UV-I 232 W/m -9,1 C -3,5 C 4,0 km/h (1 Bft) 0,00 %
08.02.2015 14:45 -2,8 C 68 % 1019,8 hPa 0,0 l/m 0,0 km/h (0 Bft) S 187 15 min 0,000 mm 2,0 UV-I 222 W/m -7,9 C -2,8 C 0,0 km/h (0 Bft) 0,00 %
08.02.2015 15:00 -2,7 C 72 % 1020,0 hPa 0,0 l/m 0,0 km/h (0 Bft) SO 140 15 min 0,000 mm 1,0 UV-I 190 W/m -7,0 C -2,7 C 0,0 km/h (0 Bft) 0,00 %
08.02.2015 15:15 -2,2 C 68 % 1020,0 hPa 0,0 l/m 0,0 km/h (0 Bft) SW 226 15 min 0,000 mm 1,0 UV-I 170 W/m -7,3 C -2,2 C 0,0 km/h (0 Bft) 0,00 %
08.02.2015 15:30 -1,7 C 65 % 1020,1 hPa 0,0 l/m 2,9 km/h (1 Bft) W 281 0 min 0,000 mm 1,0 UV-I 130 W/m -7,4 C -1,7 C 4,0 km/h (1 Bft) 0,00 %
08.02.2015 15:45 -2,3 C 62 % 1020,6 hPa 0,0 l/m 0,7 km/h (0 Bft) W 261 0 min 0,000 mm 1,0 UV-I 90 W/m -8,6 C -2,3 C 4,0 km/h (1 Bft) 0,00 %
08.02.2015 16:00 -1,9 C 60 % 1020,8 hPa 0,0 l/m 7,2 km/h (2 Bft) W-SW 250 0 min 0,000 mm 1,0 UV-I 90 W/m -8,6 C -2,8 C 11,9 km/h (2 Bft) 0,00 %
08.02.2015 16:15 -2,5 C 55 % 1021,1 hPa 0,0 l/m 2,2 km/h (1 Bft) W-NW 300 15 min 0,000 mm 1,0 UV-I 80 W/m -10,3 C -2,5 C 4,0 km/h (1 Bft) 0,00 %
08.02.2015 16:30 -3,0 C 55 % 1021,2 hPa 0,0 l/m 0,7 km/h (0 Bft) N 350 15 min 0,000 mm 0,0 UV-I 60 W/m -10,7 C -3,0 C 4,0 km/h (1 Bft) 0,00 %
08.02.2015 16:45 -3,3 C 54 % 1022,0 hPa 0,0 l/m 0,4 km/h (0 Bft) W-SW 250 0 min 0,000 mm 0,0 UV-I 22 W/m -11,2 C -3,3 C 4,0 km/h (1 Bft) 0,00 %
08.02.2015 17:00 -3,3 C 54 % 1021,9 hPa 0,0 l/m 6,5 km/h (2 Bft) W-SW 250 0 min 0,000 mm 0,0 UV-I 2 W/m -11,2 C -3,4 C 7,9 km/h (2 Bft) 0,00 %
08.02.2015 17:15 -3,4 C 59 % 1022,2 hPa 0,0 l/m 3,2 km/h (1 Bft) W-SW 252 0 min 0,000 mm 0,0 UV-I 0 W/m -10,2 C -3,4 C 7,9 km/h (2 Bft) 0,00 %
08.02.2015 17:30 -3,8 C 62 % 1022,5 hPa 0,0 l/m 0,7 km/h (0 Bft) W-SW 251 0 min 0,000 mm 0,0 UV-I 0 W/m -10,0 C -3,8 C 4,0 km/h (1 Bft) 0,00 %
08.02.2015 17:45 -4,1 C 63 % 1022,6 hPa 0,0 l/m 2,2 km/h (1 Bft) W-SW 255 0 min 0,000 mm 0,0 UV-I 0 W/m -10,1 C -4,1 C 4,0 km/h (1 Bft) 0,00 %
08.02.2015 18:00 -4,2 C 64 % 1023,0 hPa 0,0 l/m 3,2 km/h (1 Bft) S 179 0 min 0,000 mm 0,0 UV-I 0 W/m -10,0 C -4,2 C 7,9 km/h (2 Bft) 0,00 %
08.02.2015 18:15 -4,3 C 65 % 1023,5 hPa 0,0 l/m 1,4 km/h (1 Bft) W-SW 255 0 min 0,000 mm 0,0 UV-I 0 W/m -9,9 C -4,3 C 4,0 km/h (1 Bft) 0,00 %
08.02.2015 18:30 -4,4 C 64 % 1023,8 hPa 0,0 l/m 0,4 km/h (0 Bft) W-SW 252 0 min 0,000 mm 0,0 UV-I 0 W/m -10,2 C -4,4 C 4,0 km/h (1 Bft) 0,00 %
08.02.2015 18:45 -4,2 C 63 % 1024,0 hPa 0,0 l/m 4,7 km/h (1 Bft) W-SW 253 0 min 0,000 mm 0,0 UV-I 0 W/m -10,2 C -4,2 C 7,9 km/h (2 Bft) 0,00 %
08.02.2015 19:00 -4,1 C 65 % 1024,4 hPa 0,0 l/m 5,4 km/h (1 Bft) W-SW 249 0 min 0,000 mm 0,0 UV-I 0 W/m -9,7 C -4,1 C 7,9 km/h (2 Bft) 0,00 %
08.02.2015 19:15 -4,1 C 66 % 1024,6 hPa 0,0 l/m 0,4 km/h (0 Bft) N 357 0 min 0,000 mm 0,0 UV-I 0 W/m -9,5 C -4,1 C 4,0 km/h (1 Bft) 0,00 %
08.02.2015 19:30 -4,0 C 65 % 1024,5 hPa 0,0 l/m 4,0 km/h (1 Bft) W-NW 295 0 min 0,000 mm 0,0 UV-I 0 W/m -9,6 C -4,0 C 7,9 km/h (2 Bft) 0,00 %
08.02.2015 19:45 -3,9 C 64 % 1024,8 hPa 0,0 l/m 2,9 km/h (1 Bft) W-SW 256 0 min 0,000 mm 0,0 UV-I 0 W/m -9,7 C -3,9 C 7,9 km/h (2 Bft) 0,00 %
08.02.2015 20:00 -3,8 C 63 % 1025,0 hPa 0,0 l/m 2,2 km/h (1 Bft) SW 226 0 min 0,000 mm 0,0 UV-I 0 W/m -9,8 C -3,8 C 4,0 km/h (1 Bft) 0,00 %
08.02.2015 20:15 -3,7 C 63 % 1025,1 hPa 0,0 l/m 3,2 km/h (1 Bft) W-SW 255 0 min 0,000 mm 0,0 UV-I 0 W/m -9,7 C -3,7 C 7,9 km/h (2 Bft) 0,00 %
08.02.2015 20:30 -3,6 C 63 % 1025,4 hPa 0,0 l/m 4,0 km/h (1 Bft) W-SW 240 0 min 0,000 mm 0,0 UV-I 0 W/m -9,6 C -3,6 C 7,9 km/h (2 Bft) 0,00 %
08.02.2015 20:45 -3,7 C 67 % 1025,6 hPa 0,0 l/m 0,0 km/h (0 Bft) N-NW 346 0 min 0,000 mm 0,0 UV-I 0 W/m -8,9 C -3,7 C 0,0 km/h (0 Bft) 0,00 %
08.02.2015 21:00 -3,8 C 63 % 1025,8 hPa 0,0 l/m 0,7 km/h (0 Bft) S-SW 206 0 min 0,000 mm 0,0 UV-I 0 W/m -9,8 C -3,8 C 4,0 km/h (1 Bft) 0,00 %
08.02.2015 21:15 -3,6 C 60 % 1025,8 hPa 0,0 l/m 0,7 km/h (0 Bft) SW 232 0 min 0,000 mm 0,0 UV-I 0 W/m -10,2 C -3,6 C 4,0 km/h (1 Bft) 0,00 %
08.02.2015 21:30 -3,5 C 59 % 1025,8 hPa 0,0 l/m 0,0 km/h (0 Bft) S 174 0 min 0,000 mm 0,0 UV-I 0 W/m -10,3 C -3,5 C 0,0 km/h (0 Bft) 0,00 %
08.02.2015 21:45 -3,4 C 58 % 1025,9 hPa 0,0 l/m 2,9 km/h (1 Bft) W-SW 249 0 min 0,000 mm 0,0 UV-I 0 W/m -10,4 C -3,4 C 4,0 km/h (1 Bft) 0,00 %
08.02.2015 22:00 -3,2 C 58 % 1026,0 hPa 0,0 l/m 1,4 km/h (1 Bft) W-SW 255 0 min 0,000 mm 0,0 UV-I 0 W/m -10,3 C -3,2 C 4,0 km/h (1 Bft) 0,00 %
08.02.2015 22:15 -3,2 C 56 % 1026,0 hPa 0,0 l/m 0,0 km/h (0 Bft) W-NW 282 0 min 0,000 mm 0,0 UV-I 0 W/m -10,7 C -3,2 C 0,0 km/h (0 Bft) 0,00 %
08.02.2015 22:30 -3,3 C 55 % 1026,1 hPa 0,0 l/m 6,5 km/h (2 Bft) W-SW 256 0 min 0,000 mm 0,0 UV-I 0 W/m -11,0 C -3,4 C 11,9 km/h (2 Bft) 0,00 %
08.02.2015 22:45 -3,1 C 57 % 1026,2 hPa 0,0 l/m 5,4 km/h (1 Bft) W-SW 256 0 min 0,000 mm 0,0 UV-I 0 W/m -10,4 C -3,1 C 7,9 km/h (2 Bft) 0,00 %
08.02.2015 23:00 -3,2 C 61 % 1026,5 hPa 0,0 l/m 3,2 km/h (1 Bft) W-SW 256 0 min 0,000 mm 0,0 UV-I 0 W/m -9,6 C -3,2 C 7,9 km/h (2 Bft) 0,00 %
08.02.2015 23:15 -3,4 C 64 % 1027,1 hPa 0,0 l/m 0,0 km/h (0 Bft) S 172 0 min 0,000 mm 0,0 UV-I 0 W/m -9,2 C -3,4 C 0,0 km/h (0 Bft) 0,00 %
08.02.2015 23:30 -3,3 C 63 % 1026,9 hPa 0,0 l/m 0,0 km/h (0 Bft) S 173 0 min 0,000 mm 0,0 UV-I 0 W/m -9,3 C -3,3 C 0,0 km/h (0 Bft) 0,00 %
08.02.2015 23:45 -3,5 C 61 % 1026,7 hPa 0,0 l/m 9,4 km/h (2 Bft) W-SW 256 0 min 0,000 mm 0,0 UV-I 0 W/m -9,9 C -6,8 C 15,8 km/h (3 Bft) 0,00 %
_ Min-Zeit 00:00 16:45 08:15 - 02:00 - - - - - - 00:15 00:30 02:00 00:00
Minimum _ -4,9 C 54 % 1015,9 hPa - 0,0 km/h (0 Bft) - - - - - - -11,5 C -12,9 C 0,0 km/h (0 Bft) 0,00 %
_ Max-Zeit 11:45 08:15 23:15 00:00 13:45 - - 09:30 00:00 11:00 11:45 08:30 11:45 13:45 00:00
Maximum _ 0,8 C 82 % 1027,1 hPa 0,0 l/m 16,6 km/h
NW (3 Bft)
- - 15 min 0,000 mm 3,0 UV-I 444 W/m -4,8 C 0,8 C 24,1 km/h
NW (4 Bft)
0,00 %
Durchschnitt _ -2,8 C 65 % 1020,3 hPa #0,0 l/m 3,8 km/h (1 Bft) W-SW - #6:00 h #0,000 mm 1,6 UV-I 205 W/m -8,5 C -3,4 C 7,0 km/h (2 Bft) 0,00 %